Flag for U.S.A. Weather past 2 weeks in Virginia Beach, Virginia, U.S.A.

Now
47 °F

Broken clouds.


Feels Like: 41 °F
Forecast: 31 / 44 °F
Wind: 14 mph from Northeast

Location: Virginia Beach - Oceana

Current Time: Mar 2, 2015 at 4:36:52 PM

Latest Report: Mar 2, 2015 at 3:56 PM


Visibility: 10 mi

Pressure: 30.28 "Hg

Humidity: 52%

Dew point: 30 °F

Location of Virginia BeachLocation

Historic Weather in Virginia Beach — Graph

°F

Virginia Beach temperature yesterday

Maximum temperature yesterday: 39 °F (at 1:56 PM)
Minimum temperature yesterday: 28 °F (at 12:56 AM)
Average temperature yesterday: 34 °F

Past Weeks' High & Low Weather Summary

 TemperatureHumidityPressure
High58 °F (Feb 22, 11:56 AM)100% (Feb 22, 8:56 AM)30.82 "Hg (Feb 22, 8:56 AM)
Low9 °F (Feb 21, 1:56 AM)21% (Feb 15, 4:56 PM)29.71 "Hg (Feb 26, 7:56 AM)
Average30 °F66%30.21 "Hg
* Reported Feb 15 2:56 PM — Mar 2 2:56 PM, Virginia Beach, Weather by CustomWeather, © 2015

Note: Actual official high and low records may vary slightly from our data, if they occured in-between our weather recording intervals... More about our weather records

Advertising

Virginia Beach weather history for previous 24 hours

 ConditionsComfort  
Time TempWeatherWind HumidityBarometerVisibility
2:56 PM
Mon, Mar 2
46 °FBroken clouds.15 mph56%30.27 "Hg10 mi
1:56 PM47 °FBroken clouds.21 mph61%30.25 "Hg7 mi
12:56 PM47 °FBroken clouds.21 mph69%30.26 "Hg7 mi
11:56 AM44 °FBroken clouds.13 mph85%30.27 "Hg7 mi
10:56 AM39 °FFog.12 mph93%30.26 "Hg5 mi
9:56 AM42 °FMostly cloudy.17 mph92%30.22 "Hg7 mi
9:03 AMN/ALow clouds.12 mphN/A30.16 "Hg6 mi
8:56 AM40 °FFog.12 mph93%30.16 "Hg5 mi
7:56 AM38 °FFog.13 mph90%30.15 "Hg3 mi
6:56 AM37 °FFog.10 mph89%30.13 "Hg3 mi
5:56 AM37 °FFog.9 mph89%30.14 "Hg1 mi
4:56 AM37 °FFog.8 mph89%30.13 "Hg1 mi
3:56 AM37 °FFog.10 mph89%30.14 "Hg2 mi
2:56 AM36 °FFog.13 mph89%30.14 "Hg6 mi
1:56 AM36 °FFog.10 mph89%30.19 "Hg1 mi
12:56 AM36 °FLow clouds.9 mph85%30.23 "Hg7 mi
11:56 PM
Sun, Mar 1
35 °FLow clouds.10 mph85%30.27 "Hg7 mi
10:56 PM34 °FOvercast.9 mph85%30.24 "Hg7 mi
9:56 PM34 °FOvercast.5 mph88%30.28 "Hg8 mi
8:56 PM33 °FFog.No wind96%30.32 "Hg6 mi
7:56 PM33 °FFog.6 mph85%30.35 "Hg6 mi
6:56 PM33 °FLight rain. Fog.5 mph85%30.36 "Hg1 mi
5:56 PM33 °FLight rain. Fog.10 mph82%30.36 "Hg1 mi
4:56 PM34 °FDrizzle. Fog.3 mph79%30.37 "Hg2 mi
Weather by CustomWeather, © 2015

See weather overviewHow to use our weather pages